Regional Weather Roundup
Issued by NWS

Home | Current Version | Previous Version | Text Only | Print | Product List | Glossary On
Versions: 1 2 3 4 5 6 7 8 9 10 11 12 13 14 15 16 17 18 19 20 21 22 23 24 25 26 27 28 29 30 31 32 33 34 35 36 37 38 39 40 41 42 43 44 45 46 47 48 49 50
000
ASUS44 KMEG 221710
RWRTN
TENNESSEE HOURLY STATE WEATHER ROUNDUP
NATIONAL WEATHER SERVICE MEMPHIS TN
1200 PM CDT SAT JUL 22 2017

TNZ002-004-019-021-049-052-054-088>092-221800-
WEST TENNESSEE

CITY           SKY/WX    TMP DP  RH WIND       PRES   REMARKS
MEMPHIS INTL   MOSUNNY   94  76  55 VRB6      29.98F HX 106
NWS MEMPHIS      N/A     94 N/A N/A MISG        N/A
JACKSON        MOSUNNY   94  75  54 SW9G18    29.99S HX 105
SOMERVILLE       N/A     93  73  52 W6G13     29.98S HX 102
COVINGTON      MOSUNNY   91  77  62 VRB6G13   29.98S HX 105
UNION CITY     SUNNY     91  79  66 W6        29.96F HX 107
BOLIVAR        SUNNY     93  72  49 VRB5G13   29.98F HX 100
PARIS          MOSUNNY   90  79  70 W7        29.98S HX 105
HUNTINGDON     MOSUNNY   93  79  62 VRB6      29.98S HX 110
LEXINGTON      SUNNY     93  75  55 SW12      29.99F HX 104
SELMER         MOSUNNY   93  75  55 CALM      30.00S HX 104
SAVANNAH       MOSUNNY   93  75  55 CALM      29.99S HX 104
$$

TNZ008-025-027-028-033-062-065-066-221800-
NORTH MIDDLE TENNESSEE

CITY           SKY/WX    TMP DP  RH WIND       PRES   REMARKS
NASHVILLE      PTSUNNY   94  74  52 NW9       30.01S HX 104
PORTLAND       MOSUNNY   93  73  52 SW10      30.00S HX 102
CLARKSVILLE    MOSUNNY   91  75  59 VRB5      29.99S HX 101
SMYRNA         MOSUNNY   94  75  54 SW8       30.01S HX 105
COOKEVILLE     MOSUNNY   91  75  59 SW7       30.03S HX 102
GALLATIN       PTSUNNY   93  77  59 VRB3      30.02S HX 107
CROSSVILLE     MOSUNNY   86  70  58 W6        30.09F HX  90
$$

TNZ061-075-076-078-094-096-097-221800-
SOUTH MIDDLE TENNESSEE

CITY           SKY/WX    TMP DP  RH WIND       PRES   REMARKS
FAYETTEVILLE   MOSUNNY   90  75  62 VRB6      30.03F HX 100
TULLAHOMA      MOSUNNY   90  72  55 SW8       30.06S HX  96
WINCHESTER     MOSUNNY   93  73  52 VRB5      30.04F HX 102
MCMINNVILLE    SUNNY     91  75  59 VRB3      30.04F HX 102
COLUMBIA       MOSUNNY   91  75  59 W7        30.00S HX 102
SHELBYVILLE    PTSUNNY   90  75  62 CALM      30.03S HX 100
$$

TNZ017-018-042-046-047-221800-
NORTHEAST TENNESSEE

CITY           SKY/WX    TMP DP  RH WIND       PRES   REMARKS
TRI CITIES     PTSUNNY   92  71  50 W13       30.04F HX  98
ELIZABETHTON   MOSUNNY   90  72  55 W8        30.04F HX  96
$$

TNZ012-013-036-069-073-074-221800-
CENTRAL EAST TENNESSEE

CITY           SKY/WX    TMP DP  RH WIND       PRES   REMARKS
KNOXVILLE      MOSUNNY   90  70  51 W8        30.02F HX  95
OAK RIDGE      SUNNY     92  70  48 VRB3      30.03F HX  97
DOWNTOWN KNOXV MOSUNNY   93  73  52 W9        30.01F HX 102
GATLINBURG       N/A     97  70  41 W8        30.01S HX 103
MORRISTOWN     MOSUNNY   91  72  52 W7G14     30.03F HX  98
JACKSBORO      PTSUNNY   90  75  62 CALM      30.06S HX 100
$$

TNZ083-085-099-221800-
SOUTHEAST TENNESSEE

CITY           SKY/WX    TMP DP  RH WIND       PRES   REMARKS
CHATTANOOGA    MOSUNNY   91  72  53 W5        30.03S HX  98
DAYTON         SUNNY     91  79  66 CALM      30.01F HX 107
$$

SKY/WX REPORTED AS FAIR MEANS FEW OR NO CLOUDS BELOW
12 THOUSAND FEET.





USA.gov is the U.S. government's official web portal to all federal, state and local government web resources and services.